Miscellaneous Local Product
Issued by NWS North Platte, NE

Home | Current Version | Previous Version | Graphics & Text | Print | Product List | Glossary On
Versions: 1 2 3 4 5 6 7 8 9 10 11 12 13 14 15 16 17 18 19 20 21 22 23 24 25 26 27 28 29 30 31 32 33 34 35 36 37 38 39 40 41 42 43 44 45 46 47 48 49 50
189
AXUS43 KLBF 130310
MISLBF


WESTERN AND NORTH CENTRAL NEBRASKA HOURLY WEATHER ROUNDUP
NATIONAL WEATHER SERVICE NORTH PLATTE NE
900 PM CST TUE DEC 12 2017

NOTE: "FAIR" INDICATES FEW OR NO CLOUDS BELOW 12,000 FEET WITH NO
SIGNIFICANT WEATHER AND/OR OBSTRUCTIONS TO VISIBILITY.

NOTE: STATIONS NOT REPORTING VARIABLES SUCH AS SKY/WEATHER OR
PRESSURE ARE PROVIDED BY RAWS AND APRS NETWORKS AND ARE NOT UNDER
NATIONAL WEATHER SERVICE QUALITY CONTROL.

...OBSERVATIONS IN AND NEAR THE EASTERN PANHANDLE OF NEBRASKA...

CITY           SKY/WX    TMP DP  RH WIND       PRES   REMARKS
PINE RIDGE     MOCLDY    46  23  40 W7        29.92F
GORDON         CLOUDY    45  22  39 W12       29.90F
CHADRON        CLEAR     45  19  35 NW7       29.95S
ALLIANCE       CLEAR     29  16  58 W9        29.96F WCI  20
SIDNEY         CLEAR     45  11  25 W16       30.02F
CRESCENT LAKE    N/A     45  16  30 W9          N/A
$$

...OBSERVATIONS IN NORTHERN NEBRASKA AND FAR SOUTHERN SOUTH DAKOTA...

CITY           SKY/WX    TMP DP  RH WIND       PRES   REMARKS
WINNER         FAIR      48  22  35 W10       29.77F
VALENTINE      CLOUDY    42  22  44 W12       29.84F
THEDFORD       PTCLDY    38  20  48 NW6       29.87F WCI  33
AINSWORTH      CLEAR     39  23  51 W10       29.82F WCI  32
O`NEILL        CLEAR     40  24  53 SW8       29.81F WCI  34
ORD            CLEAR     41  20  43 CALM      29.85F
BROKEN BOW     CLEAR     32  20  61 CALM      29.88F
VALENTINE NWR    N/A     47  18  31 W9          N/A
HALSEY           N/A     45  17  32 W6          N/A
BUTTE            N/A     41  23  49 SW7         N/A
CHAMBERS         N/A     43  22  42 SW7         N/A
EWING            N/A     35  22  60 SW3         N/A
$$

...OBSERVATIONS IN SOUTHWEST NEBRASKA AND FAR NORTHEAST COLORADO...

CITY           SKY/WX    TMP DP  RH WIND       PRES   REMARKS
WRAY           FAIR      37  14  38 W10       30.02F WCI  30
HOLYOKE        FAIR      37  16  41 W10       30.01F WCI  30
IMPERIAL       CLEAR     44  16  32 W10       29.98F
OGALLALA       CLEAR     39  16  40 SW5       29.96F
NORTH PLATTE   CLEAR     29  20  69 NW6       29.92F WCI  23
MCCOOK         CLOUDY    40  19  43 W9        29.96F WCI  34
LEXINGTON      CLEAR     34  20  56 N3        29.91F
STAPLETON        N/A     39  21  48 CALM        N/A
GOTHENBURG       N/A     47  19  32 W3          N/A
CALLAWAY         N/A     46  22  39 W8          N/A
$$

...OBSERVATIONS IN CENTRAL LINCOLN COUNTY AREA...

CITY           SKY/WX    TMP DP  RH WIND       PRES   REMARKS
N.P. AIRPORT   CLEAR     29  20  69 NW6       29.92F WCI  23
N.P. DOWNTOWN    N/A     36  22  56 CALM        N/A
N.P. SOUTHEAST   N/A     41  21  44 CALM        N/A
N.P. HILLCREST   N/A     42  21  42 W5          N/A
$$

...SOME OBSERVATIONS FROM AROUND THE REGION...

CITY           SKY/WX    TMP DP  RH WIND       PRES   REMARKS
DENVER         CLOUDY    47  10  22 SW9       30.14F
GRAND JUNCTION CLOUDY    36   8  31 N5        30.33S WCI  32
LARAMIE        CLOUDY    37   7  28 W12G17    30.21F WCI  29
CHEYENNE       CLOUDY    46  10  23 W25G32    30.12F
CASPER         CLOUDY    44  17  33 SW18G26   30.11F
BISMARCK       CLOUDY    49  19  30 W14       29.59F
RAPID CITY     CLOUDY    55  11  17 NW20      29.87F
PIERRE         PTCLDY    50  22  33 W18       29.73F
SIOUX FALLS    CLEAR     39  27  62 SW10      29.73F WCI  32
OMAHA          CLEAR     29  23  78 SE9       29.90F WCI  20
GRAND ISLAND   CLEAR     41  21  44 SW12      29.89F
SCOTTSBLUFF    CLOUDY    39  15  37 W12       30.00F WCI  32
KANSAS CITY    CLEAR     31  24  75 S10       30.00F WCI  22
HILL CITY      CLEAR     43  19  38 W8        29.97F
WICHITA        CLEAR     36  27  69 S8        30.05F WCI  30
DODGE CITY     CLEAR     45  14  28 SW10      30.04F
OKLAHOMA CITY  CLEAR     34  26  72 S6        30.14F WCI  29
DALLAS         CLEAR     50  25  37 NW7       30.23F
AMARILLO       CLEAR     47   9  21 W14       30.18F
$$




USA.gov is the U.S. government's official web portal to all federal, state and local government web resources and services.